Temp
4 4 4 4 4 4 4 4 4 4 3 3 3 4 5 5 5 4 6 7 6 6 6 7 7 9 10 11 11 11 11 15 19 21 22 22 22 21 21 20 20 18 19 18 17
4 3 3 4 4 4 4 4 4 3 3 3 3 4 4 4 4 6 6 6 6 5 6 7 8 9 9 11 11 12 12 16 20 22 22 22 21 20 20 21 20 18 16 17 16
4 3 3 3 3 4 4 4 4 3 3 3 4 4 4 4 5 7 5 5 6 6 6 6 7 8 9 12 12 13 14 17 19 20 16 19 20 20 20 21 21 20 17 16 15
3 3 3 3 3 4 4 4 4 4 4 4 4 4 4 4 7 6 5 5 6 5 5 6 7 8 10 10 13 13 15 16 18 13 16 17 17 20 20 21 21 20 18 16 16
3 3 3 3 3 3 4 4 4 5 5 4 4 4 4 6 7 5 5 5 5 5 5 5 7 8 9 11 13 14 16 16 15 14 14 15 17 19 20 20 19 20 18 18 17
3 3 3 3 3 3 3 4 5 5 4 4 4 4 4 7 5 4 4 5 5 5 5 5 6 8 8 8 10 14 14 15 15 13 14 16 17 19 19 19 19 19 18 18 17
3 3 3 3 3 3 3 4 4 4 4 4 4 3 5 6 4 4 4 4 4 5 5 5 4 5 8 8 9 11 12 14 15 16 14 16 17 18 18 18 18 18 18 18 18
3 3 3 3 3 3 3 4 4 4 4 4 4 4 6 5 4 4 4 5 4 4 4 4 4 4 7 7 9 10 11 12 14 16 16 15 15 18 18 18 17 18 19 18 18
4 3 4 3 3 3 4 4 4 4 4 4 3 4 7 5 4 5 4 5 5 4 4 4 4 3 4 6 7 8 9 12 13 14 16 15 16 19 18 18 18 18 19 19 18
5 5 5 4 4 4 4 4 3 3 3 3 3 4 5 6 5 4 4 4 5 5 4 4 4 4 4 5 8 9 10 14 14 14 15 15 16 18 18 18 18 18 19 19 19
7 6 7 6 5 4 4 3 4 4 4 6 6 6 6 5 4 5 4 4 5 5 5 2 4 5 5 6 10 9 12 14 15 16 15 15 16 18 17 17 18 18 19 19 19
8 7 7 6 5 4 4 4 3 3 6 4 4 4 4 4 5 5 4 5 6 6 5 3 4 8 8 8 6 6 10 13 16 16 15 15 15 17 17 17 17 18 19 19 18
8 7 6 6 5 3 3 3 3 3 5 6 5 5 5 4 6 6 5 6 7 7 5 4 7 9 8 6 5 6 10 13 14 14 14 14 15 16 17 17 17 17 18 18 19
9 7 6 6 4 3 3 3 3 3 4 7 5 4 3 4 5 5 5 5 7 5 3 5 6 8 7 5 6 8 13 13 14 12 12 14 13 16 16 17 17 17 17 17 18
9 8 7 5 4 3 3 2 2 2 7 5 5 3 3 4 5 5 4 5 6 5 5 5 6 8 7 7 7 7 8 13 13 13 13 13 13 16 17 16 17 17 17 17 17
9 8 6 4 3 2 2 2 2 4 7 5 5 4 3 2 5 5 5 4 5 6 5 4 4 7 8 9 8 5 9 9 12 12 10 14 14 16 16 17 18 18 17 17 17
9 7 6 4 3 2 2 2 4 7 6 6 6 3 3 3 4 5 6 5 5 4 5 6 5 6 6 4 4 4 8 8 8 8 11 15 14 16 17 17 18 18 18 18 17
8 6 5 3 2 2 2 4 6 8 6 9 8 4 3 3 3 5 5 4 6 7 7 7 5 5 6 6 5 5 6 9 10 10 12 13 13 16 18 17 16 16 17 18 17
7 6 3 3 2 3 3 6 7 4 8 4 7 4 5 4 4 4 4 6 8 7 6 8 6 6 7 6 6 5 7 10 11 14 13 13 14 15 16 16 15 16 15 15 15
6 4 3 2 2 2 5 7 7 8 7 7 5 7 6 4 4 3 5 8 7 8 8 5 6 8 6 6 5 4 4 9 10 10 11 13 15 15 14 15 16 16 15 15 15
6 7 2 2 2 4 5 6 6 7 7 7 7 6 6 5 4 4 6 8 9 8 8 6 6 5 5 6 6 5 6 9 11 11 13 12 14 15 15 14 15 15 14 14 15
6 7 4 3 5 6 6 6 6 7 7 6 5 4 4 4 6 5 5 6 9 8 7 5 6 6 6 8 10 9 8 11 11 11 11 11 13 15 14 14 14 14 13 12 12
8 5 4 4 6 6 7 6 6 6 6 6 4 4 6 4 6 6 3 5 8 9 7 6 7 7 6 6 6 7 8 9 11 9 10 12 13 14 13 14 14 14 13 11 10
7 6 5 5 5 6 5 6 6 5 6 6 6 6 6 7 5 5 3 5 8 8 6 7 6 6 9 10 9 6 8 11 7 10 13 13 13 13 13 14 15 13 13 12 10
7 5 5 8 7 6 6 6 5 4 5 5 7 6 2 5 7 5 3 3 6 6 6 6 7 9 10 10 10 9 10 10 7 10 10 13 13 15 16 15 14 14 12 11 11
7 5 4 6 4 6 6 6 4 4 4 5 4 5 4 4 3 3 3 4 4 5 4 8 8 9 8 10 10 9 10 10 10 11 11 11 11 14 14 13 13 14 12 11 10
7 5 6 5 6 7 5 4 4 3 4 4 4 5 5 4 3 3 3 3 3 5 7 9 9 9 9 9 10 9 10 10 10 10 11 10 11 13 13 13 12 13 12 11 11
Height
1516 1514 1512 1510 1507 1505 1502 1499 1497 1495 1493 1491 1489 1486 1484 1482 1483 1484 1486 1487 1484 1484 1485 1486 1485 1487 1489 1488 1490 1491 1489 1477 1466 1464 1463 1469 1477 1485 1487 1490 1495 1497 1499 1503 1505
1515 1513 1510 1508 1505 1502 1500 1498 1495 1492 1490 1488 1486 1483 1481 1482 1482 1483 1483 1482 1482 1482 1483 1484 1483 1485 1486 1484 1486 1486 1481 1469 1465 1461 1462 1464 1476 1484 1490 1490 1495 1499 1502 1503 1505
1514 1511 1509 1505 1503 1500 1498 1496 1493 1489 1487 1485 1482 1481 1480 1481 1483 1480 1478 1479 1479 1477 1480 1481 1481 1483 1483 1480 1481 1480 1472 1467 1466 1465 1470 1471 1476 1480 1485 1486 1490 1496 1501 1502 1504
1512 1509 1507 1504 1501 1499 1497 1493 1490 1487 1484 1482 1480 1480 1480 1483 1481 1480 1477 1477 1477 1476 1478 1479 1480 1481 1480 1478 1474 1476 1470 1473 1471 1474 1478 1479 1481 1475 1481 1484 1488 1494 1500 1503 1504
1510 1507 1505 1502 1500 1497 1495 1491 1487 1484 1482 1480 1480 1481 1481 1483 1480 1479 1477 1476 1476 1477 1477 1478 1478 1480 1479 1476 1472 1471 1467 1471 1476 1481 1478 1483 1482 1479 1481 1487 1490 1493 1499 1502 1505
1508 1505 1502 1500 1497 1495 1493 1489 1486 1484 1481 1480 1480 1481 1483 1481 1480 1479 1477 1477 1478 1478 1477 1478 1478 1479 1480 1479 1476 1470 1473 1471 1473 1478 1481 1483 1479 1478 1482 1485 1490 1494 1498 1501 1504
1506 1503 1500 1498 1495 1493 1490 1489 1486 1484 1483 1482 1481 1482 1482 1481 1479 1480 1479 1477 1478 1478 1477 1477 1477 1478 1478 1481 1479 1477 1476 1475 1474 1476 1482 1479 1479 1476 1482 1485 1491 1493 1496 1501 1504
1503 1501 1497 1496 1493 1491 1489 1488 1486 1484 1484 1483 1482 1482 1480 1479 1479 1478 1479 1479 1477 1477 1477 1477 1477 1478 1477 1478 1478 1480 1478 1473 1475 1473 1477 1482 1479 1476 1483 1484 1489 1490 1493 1499 1502
1500 1498 1495 1493 1491 1488 1487 1486 1485 1484 1484 1482 1483 1483 1478 1478 1478 1478 1479 1479 1478 1477 1476 1477 1478 1478 1480 1479 1483 1480 1475 1467 1472 1473 1474 1478 1478 1471 1477 1481 1486 1487 1490 1494 1499
1498 1496 1493 1491 1489 1487 1486 1484 1484 1483 1482 1483 1482 1484 1479 1478 1478 1477 1478 1478 1478 1477 1476 1477 1477 1475 1476 1474 1463 1467 1469 1459 1463 1468 1472 1474 1475 1469 1473 1480 1482 1484 1486 1491 1495
1496 1494 1492 1490 1488 1486 1485 1484 1487 1485 1482 1479 1478 1477 1478 1479 1478 1478 1478 1478 1477 1476 1475 1479 1475 1467 1469 1471 1464 1468 1460 1451 1456 1459 1468 1471 1473 1469 1475 1478 1479 1480 1482 1486 1491
1494 1492 1490 1488 1486 1485 1485 1486 1484 1484 1479 1476 1476 1476 1476 1477 1477 1476 1477 1478 1474 1471 1475 1479 1471 1463 1467 1467 1474 1479 1466 1456 1453 1456 1465 1468 1468 1466 1470 1475 1476 1476 1478 1483 1488
1492 1491 1489 1487 1485 1485 1485 1485 1482 1481 1480 1474 1475 1475 1476 1477 1475 1474 1477 1474 1471 1467 1470 1471 1460 1461 1463 1471 1475 1478 1462 1454 1453 1461 1467 1470 1468 1466 1465 1471 1474 1475 1478 1481 1483
1491 1489 1488 1486 1487 1485 1485 1482 1481 1481 1479 1470 1473 1474 1475 1475 1474 1474 1475 1476 1470 1469 1474 1467 1464 1459 1465 1470 1472 1469 1455 1457 1454 1464 1468 1466 1467 1459 1464 1466 1469 1472 1476 1478 1479
1490 1488 1487 1484 1486 1486 1484 1481 1481 1483 1462 1473 1473 1473 1473 1475 1474 1473 1474 1474 1470 1469 1473 1464 1461 1457 1461 1464 1471 1471 1467 1456 1459 1463 1464 1467 1472 1450 1449 1459 1459 1465 1470 1473 1476
1488 1487 1486 1485 1485 1484 1481 1481 1482 1482 1457 1472 1471 1472 1473 1473 1471 1473 1473 1475 1472 1468 1466 1467 1464 1460 1462 1466 1472 1479 1470 1472 1463 1467 1475 1457 1463 1449 1448 1449 1451 1458 1463 1468 1472
1487 1486 1484 1485 1487 1484 1482 1483 1481 1465 1469 1468 1466 1471 1470 1470 1471 1469 1468 1470 1469 1468 1463 1461 1465 1466 1467 1473 1480 1481 1472 1471 1480 1480 1464 1450 1459 1441 1441 1446 1447 1452 1457 1463 1468
1486 1485 1484 1485 1485 1483 1482 1483 1469 1465 1465 1462 1461 1465 1468 1469 1471 1467 1466 1468 1467 1463 1458 1453 1467 1469 1469 1469 1474 1482 1476 1464 1462 1461 1455 1459 1456 1445 1441 1445 1451 1454 1455 1458 1463
1485 1484 1485 1484 1484 1482 1484 1473 1470 1477 1467 1470 1459 1464 1458 1465 1467 1466 1468 1460 1457 1461 1461 1452 1464 1470 1470 1473 1476 1478 1475 1464 1455 1439 1447 1451 1450 1445 1444 1448 1452 1453 1458 1460 1462
1486 1485 1485 1485 1484 1483 1484 1474 1475 1473 1471 1468 1467 1457 1459 1461 1465 1465 1460 1452 1456 1458 1460 1464 1463 1464 1474 1476 1481 1482 1484 1467 1461 1460 1457 1448 1445 1441 1446 1445 1449 1452 1454 1458 1461
1485 1486 1486 1484 1483 1485 1482 1479 1476 1475 1473 1468 1462 1463 1461 1460 1463 1462 1457 1454 1455 1458 1461 1464 1463 1472 1474 1468 1472 1479 1475 1467 1456 1455 1444 1453 1444 1441 1447 1451 1451 1452 1454 1456 1459
1484 1486 1486 1485 1486 1483 1480 1480 1481 1476 1472 1470 1471 1469 1469 1463 1456 1459 1460 1457 1454 1458 1460 1466 1462 1462 1465 1464 1462 1466 1466 1455 1454 1454 1453 1451 1449 1447 1451 1453 1452 1452 1455 1456 1458
1483 1486 1486 1484 1485 1483 1481 1481 1479 1477 1475 1472 1473 1473 1468 1466 1458 1456 1465 1460 1457 1458 1460 1463 1459 1458 1465 1469 1470 1470 1466 1462 1457 1458 1455 1450 1449 1448 1452 1453 1453 1454 1454 1456 1457
1483 1484 1488 1488 1487 1485 1483 1480 1479 1479 1477 1474 1472 1470 1465 1461 1462 1461 1466 1462 1460 1459 1462 1462 1461 1462 1448 1447 1450 1464 1460 1456 1465 1458 1447 1448 1447 1449 1450 1452 1452 1454 1454 1455 1457
1480 1483 1482 1482 1483 1485 1484 1480 1480 1480 1480 1477 1471 1472 1476 1466 1458 1465 1468 1467 1465 1465 1465 1464 1459 1453 1450 1447 1448 1453 1453 1456 1465 1455 1458 1449 1449 1444 1444 1449 1452 1453 1455 1455 1457
1479 1482 1483 1485 1486 1483 1481 1480 1482 1484 1482 1477 1477 1475 1476 1475 1480 1476 1476 1469 1470 1469 1468 1463 1459 1456 1456 1451 1450 1452 1452 1453 1456 1455 1454 1454 1451 1449 1451 1451 1451 1452 1454 1455 1457
1475 1477 1479 1484 1484 1480 1482 1484 1484 1484 1482 1481 1480 1475 1474 1477 1477 1475 1475 1474 1472 1469 1464 1458 1453 1452 1454 1454 1453 1457 1453 1454 1455 1455 1454 1457 1452 1451 1451 1451 1452 1452 1453 1455 1456
Wind_Speed
14 14 9 13 16 11 18 15 14 18 19 16 16 15 14 12 11 8 10 13 8 12 13 8 11 15 15 17 19 12 5 17 29 26 24 26 18 16 8 12 5 4 6 6 10
15 14 14 11 16 9 14 15 18 19 15 15 14 12 11 7 6 10 11 15 15 16 13 12 13 17 19 19 15 15 7 23 25 23 18 22 24 17 12 12 9 9 7 9 14
15 15 16 15 13 9 14 17 19 16 13 13 9 8 3 2 5 5 9 7 10 13 16 12 11 12 19 19 18 18 21 23 21 27 14 6 21 23 17 15 12 9 8 11 15
14 16 16 16 15 11 15 17 16 13 12 9 7 2 2 2 2 3 6 9 10 4 15 14 11 11 8 14 23 13 32 24 26 6 10 14 19 20 18 16 11 10 10 10 13
14 16 17 14 15 14 15 16 13 10 9 5 2 2 4 4 2 5 6 8 6 5 12 14 14 17 11 16 17 23 11 24 19 4 10 17 23 24 20 18 8 10 13 11 11
14 15 16 15 14 14 14 12 10 7 4 0 3 5 2 7 1 3 4 5 2 3 6 11 11 16 12 9 10 17 19 12 19 13 16 22 20 15 17 20 11 13 12 11 11
15 15 15 14 14 15 13 9 6 4 3 4 6 1 3 2 1 0 3 4 4 2 5 9 21 13 11 7 18 12 10 16 13 20 10 9 14 21 22 13 16 17 16 14 12
15 15 14 13 14 14 11 7 5 3 1 1 3 2 3 3 3 3 2 2 3 4 5 3 13 9 9 4 5 16 14 16 16 17 21 15 20 20 21 20 19 20 19 18 15
15 14 14 13 14 12 9 8 6 6 4 2 1 4 2 2 1 3 5 3 3 5 3 3 8 7 2 5 7 11 9 21 20 16 16 17 15 21 24 25 20 20 20 21 21
14 13 13 14 14 10 9 7 7 5 4 3 5 5 4 2 2 1 2 3 2 3 3 1 5 5 5 4 6 14 21 23 24 19 19 19 19 12 22 24 23 22 22 22 23
14 11 12 13 12 9 9 4 4 5 9 7 3 7 2 2 2 2 3 4 5 5 1 3 3 9 15 15 10 6 22 18 23 17 20 19 21 14 11 17 22 23 23 24 22
12 10 11 13 12 8 8 4 5 5 8 9 6 6 5 3 5 6 4 6 6 6 6 3 10 14 11 14 10 9 14 20 21 15 18 18 19 17 14 16 20 20 22 20 21
11 8 9 11 10 7 7 5 4 2 6 4 6 6 5 4 9 4 5 3 8 8 4 9 5 11 12 10 7 9 15 19 23 12 12 11 16 17 17 21 18 18 19 22 22
11 7 8 10 8 11 4 6 2 0 3 7 3 2 2 4 5 5 7 7 4 4 5 9 6 11 14 7 9 11 15 14 17 15 10 14 6 17 19 20 19 22 23 21 20
11 8 7 8 6 7 10 4 0 1 3 2 2 2 3 7 3 5 5 6 10 3 2 2 4 12 14 12 12 3 15 7 14 14 11 14 7 14 23 21 20 21 25 22 21
10 7 5 8 6 11 6 1 1 3 1 1 2 2 3 6 5 0 4 5 4 4 5 4 3 2 3 11 13 5 6 11 9 8 7 13 15 11 11 16 18 18 23 22 22
10 5 6 5 2 8 10 1 2 2 3 0 4 3 4 3 4 6 6 5 4 3 2 1 2 4 10 7 4 3 5 5 4 4 6 15 12 3 8 3 11 16 22 23 22
9 4 6 4 4 7 7 2 2 8 3 7 5 3 3 6 3 6 4 5 11 7 3 4 3 4 7 1 3 3 1 2 6 8 11 3 7 7 9 7 8 8 6 19 22
6 7 4 5 5 10 4 2 5 5 13 8 14 2 4 4 1 5 5 4 4 11 3 3 5 7 2 3 6 4 5 7 6 1 8 8 7 7 5 5 5 9 9 10 11
6 2 2 4 6 6 2 5 7 11 11 8 4 6 7 2 4 5 5 5 4 11 1 4 5 8 7 6 2 3 6 3 3 4 5 5 11 6 9 8 7 6 14 13 10
3 1 3 6 4 1 2 4 7 12 10 6 7 6 5 2 5 4 1 1 6 10 8 0 2 3 7 7 8 4 3 7 4 2 4 6 5 9 9 7 5 2 3 7 10
0 1 3 4 1 2 4 6 7 13 11 5 6 4 4 4 4 3 3 3 5 11 5 3 2 4 2 4 6 3 6 8 3 3 2 3 5 6 10 7 8 7 3 3 5
0 2 6 7 3 4 7 4 7 9 7 7 5 4 9 3 3 6 2 5 6 9 1 6 2 4 5 3 2 4 6 7 1 3 1 4 6 7 5 3 7 6 4 3 5
2 2 2 2 2 3 5 5 8 5 4 7 4 2 8 8 6 6 7 3 2 1 7 6 0 3 3 5 9 5 11 11 2 2 2 4 6 7 6 4 5 7 2 2 5
2 2 3 1 2 2 3 5 8 7 5 9 1 9 3 6 5 6 6 5 5 4 4 3 2 2 4 5 5 8 12 12 5 5 3 5 6 5 3 1 3 4 2 3 6
2 4 2 4 2 3 3 5 7 6 3 4 6 9 3 4 3 4 8 2 1 3 3 3 2 1 2 3 1 3 5 10 8 10 12 12 16 10 10 12 12 7 3 3 8
5 7 3 5 3 2 3 5 4 7 2 4 7 7 2 3 12 12 10 13 4 2 3 2 1 2 3 2 3 2 6 8 7 6 10 11 9 8 6 6 3 3 3 3 7
Wind_Direction
336 328 319 324 320 338 332 333 333 306 306 310 311 293 292 270 267 283 270 255 254 244 256 257 245 228 220 218 210 223 218 215 224 216 216 173 181 193 185 132 126 84 70 119 151
334 331 328 317 320 329 327 330 311 309 311 312 295 292 281 264 263 270 261 256 272 256 252 237 229 217 214 212 202 217 230 220 219 228 224 170 184 177 185 159 149 123 114 115 142
330 332 329 328 327 324 324 313 310 316 324 304 295 295 265 223 267 249 259 252 310 263 233 235 222 215 226 217 199 217 232 219 226 244 329 169 203 169 200 186 185 166 151 140 153
328 330 325 326 330 317 317 316 322 324 310 304 293 260 121 172 276 257 256 280 316 273 218 206 213 217 227 218 207 231 226 242 246 304 216 229 258 205 215 210 199 188 171 160 160
327 327 326 327 327 316 316 323 328 329 325 304 212 138 97 218 253 314 307 293 302 305 218 206 221 207 212 217 218 219 237 226 239 232 192 246 201 235 204 228 174 199 172 182 172
327 322 321 327 324 326 320 325 339 345 354 55 211 135 229 247 282 8 31 20 268 287 232 218 215 211 222 247 253 208 224 253 222 160 266 206 226 224 247 216 195 188 189 190 181
325 321 326 325 325 324 320 319 339 11 81 98 118 101 249 15 227 336 22 53 33 309 280 231 217 249 186 205 240 270 255 228 247 219 198 228 230 228 226 189 210 199 197 194 185
327 321 328 326 320 314 314 303 294 265 280 173 160 261 285 273 223 229 270 338 19 359 310 278 215 268 210 217 258 242 262 214 210 218 211 194 229 221 212 226 211 207 201 202 199
325 323 327 325 325 315 317 294 277 272 261 238 259 261 235 254 157 222 236 262 300 344 345 249 191 208 206 180 206 200 214 213 206 210 210 194 228 226 204 201 203 211 213 216 214
329 325 333 330 326 327 326 293 282 262 269 271 247 247 199 197 206 265 235 242 268 305 17 255 229 178 234 182 199 177 213 199 200 186 208 204 232 239 188 214 216 217 221 215 226
329 330 336 335 334 334 336 321 285 243 230 252 296 272 257 264 223 245 233 247 248 253 215 349 279 206 210 210 206 330 212 204 199 179 202 211 212 198 209 210 214 217 214 222 220
337 335 340 337 339 334 336 271 277 267 291 235 242 246 248 243 262 220 229 243 226 260 146 178 239 232 229 209 223 254 243 215 194 167 188 213 206 222 186 210 217 217 220 214 226
341 339 342 339 337 343 325 281 287 275 262 204 227 244 240 238 260 231 219 261 271 283 261 258 270 240 203 184 152 228 231 206 190 157 187 211 226 217 224 230 216 223 228 227 225
344 340 342 350 11 328 325 320 278 222 273 148 209 194 220 240 260 219 238 271 244 304 324 271 249 217 178 161 154 243 208 211 199 174 193 215 215 217 224 226 226 226 225 226 227
346 341 344 353 329 341 310 296 221 66 288 137 156 187 186 234 1 178 215 232 269 270 232 254 218 192 186 183 165 289 328 195 191 189 191 194 242 256 194 216 216 216 222 220 221
349 334 346 354 8 353 346 313 80 242 294 217 221 218 200 228 217 189 216 226 299 286 268 248 358 321 177 152 187 48 242 228 181 201 209 193 210 228 189 222 211 214 213 217 212
343 333 342 1 338 359 360 329 281 310 89 99 283 191 223 191 220 206 204 205 233 219 189 157 52 80 119 87 55 55 193 150 157 196 222 209 190 234 86 146 223 209 214 212 211
347 335 343 346 3 2 351 278 279 15 285 342 307 183 237 155 212 210 181 245 230 248 191 143 149 156 159 30 118 189 243 212 171 188 181 154 222 221 249 254 188 238 240 217 208
351 348 26 334 2 351 343 317 11 1 334 334 321 282 206 162 247 205 221 258 218 203 256 129 109 117 150 110 133 137 228 317 307 190 167 166 239 281 191 206 221 211 213 220 222
349 86 356 343 357 3 336 318 347 354 334 329 330 353 334 110 201 202 174 174 194 198 107 20 108 139 126 106 98 265 333 240 239 169 180 172 203 98 176 173 176 205 206 203 209
12 212 305 350 29 333 7 321 332 340 358 317 332 301 303 303 228 171 355 165 200 182 193 255 300 117 150 204 170 150 245 232 281 282 241 146 168 95 107 98 102 116 215 224 221
151 321 339 25 289 316 359 342 338 352 4 20 344 20 328 317 291 151 240 273 168 155 181 201 294 146 161 136 196 146 235 233 256 185 352 301 95 142 116 89 46 59 111 173 200
55 104 49 60 12 342 349 331 356 356 3 2 16 342 356 285 313 61 291 294 238 182 25 155 199 136 127 129 74 198 222 217 296 317 60 319 128 162 139 22 51 22 39 136 159
146 133 105 75 29 329 344 331 360 16 37 357 342 32 356 21 355 33 17 350 168 286 24 352 11 336 72 79 128 182 196 203 168 285 347 290 107 171 197 246 22 18 23 135 162
107 122 139 135 86 354 323 329 350 4 351 359 292 27 24 0 9 21 15 2 11 23 9 329 307 61 46 68 91 158 181 187 183 217 233 313 259 271 346 339 345 348 57 161 182
169 151 134 125 163 250 4 14 352 354 308 12 354 351 355 41 14 326 342 35 28 22 3 251 307 166 57 63 63 105 173 196 224 232 244 260 280 302 296 297 288 256 2 214 204
174 161 176 153 162 252 6 344 338 339 173 318 323 317 339 344 314 292 272 282 256 280 267 261 233 236 108 169 161 196 219 203 213 235 239 242 259 324 291 295 340 249 290 267 216